Location: �terpigny
(49.8910°N, 2.9249°E)
Time: 03:37:28
(UTC+00:00)

Cosmos 332 Rocket - Pass Details

Date: 30 May 2022
Orbit: 681 x 703 km, 74.0° (Epoch: 05 July)

Event Time Altitude Azimuth Distance (km) Brightness Sun altitude
Exits shadow 01:29:16 16° 246° (WSW) 1,780 5.5 -14.8°
Maximum altitude 01:32:35 34° 304° (NW) 1,130 5.0 -14.6°
Drops below altitude 10° 01:36:57 10° 9° (N) 2,136 7.6 -14.2°
Sets 01:39:28 0° 19° (NNE) 3,057 9.0 -14.1°
